Regional Weather Roundup
Issued by NWS

Home | Current Version | Previous Version | Graphics & Text | Print | Product List | Glossary On
Versions: 1 2 3 4 5 6 7 8 9 10 11 12 13 14 15 16 17 18 19 20 21 22 23 24 25 26 27 28 29 30 31 32 33 34 35 36 37 38 39 40 41 42 43 44 45 46 47 48 49 50
000
ASUS43 KDMX 311807
RWRIA

WEATHER ROUNDUP FOR IOWA
NATIONAL WEATHER SERVICE DES MOINES IA
100 PM CDT FRI JUL 31 2015

NOTE: "FAIR" INDICATES FEW OR NO CLOUDS BELOW 12,000 FEET WITH NO
SIGNIFICANT WEATHER AND/OR OBSTRUCTIONS TO VISIBILITY.

* - THESE STATIONS ARE NOT NWS STATIONS...THUS NOT UNDER NWS
QUALITY CONTROL.  THEY ALSO DO NOT REPORT WEATHER SUCH
AS PRECIPITATION OR FOG.

IAZ001>003-012>014-020>022-031>034-043>046-311900-
   NORTHWEST IOWA

CITY           SKY/WX    TMP DP  RH WIND       PRES   REMARKS
CARROLL *      SUNNY     82  68  61 N5        30.12F HX  85
CHEROKEE *     SUNNY     81  62  52 NE7       30.14F HX  82
DENISON *      HAZE      82  70  65 NW6       30.11F VSB 1/2 HX  86
LE MARS *      SUNNY     82  64  54 E9        30.14F HX  84
ORANGE CITY *  SUNNY     81  61  50 CALM      30.15F HX  81
SHELDON *      SUNNY     81  57  44 NE7       30.14F HX  81
SIOUX CITY     SUNNY     84  68  58 VRB3      30.12F HX  87
6HR MIN TEMP:  65; 6HR MAX TEMP:  84;

SPENCER        SUNNY     84  55  36 N9        30.15F HX  83
6HR MIN TEMP:  60; 6HR MAX TEMP:  84;

STORM LAKE *   SUNNY     81  63  54 E9        30.15F HX  82
$$

IAZ055>058-069>071-079>083-090>094-311900-
   SOUTHWEST IOWA

CITY           SKY/WX    TMP DP  RH WIND       PRES   REMARKS
ATLANTIC *     SUNNY     84  72  65 SW6       30.12F HX  89
AUDUBON *      SUNNY     84  70  61 NW6       30.14F HX  88
CLARINDA *     SUNNY     86  73  66 VRB6G12   30.14F HX  93
COUNCIL BLFS * MOSUNNY   90  72  55 SW9       30.12F HX  96
CRESTON *      SUNNY     82  70  65 N6        30.15F HX  86
HARLAN  *      SUNNY     84  77  79 SE5       30.16F HX  94
LAMONI         SUNNY     85  69  58 W7        30.13F HX  89
6HR MIN TEMP:  70; 6HR MAX TEMP:  86;

RED OAK *      SUNNY     86  73  66 W8        30.12F HX  93
SHENANDOAH *   SUNNY     86  75  70 VRB7      30.13F HX  95
$$

IAZ047>049-059>061-072>074-084-311900-
   CENTRAL IOWA

CITY           SKY/WX    TMP DP  RH WIND       PRES   REMARKS
AMES           SUNNY     85  61  44 N7        30.11F HX  85
6HR MIN TEMP:  66; 6HR MAX TEMP:  85;

ANKENY *       SUNNY     84  64  51 CALM      30.11S HX  86
CHARITON *     SUNNY     84  70  61 VRB7      30.11F HX  88
DES MOINES     MOSUNNY   88  64  44 NW3       30.10F HX  89
6HR MIN TEMP:  71; 6HR MAX TEMP:  88;

GRINNELL*      SUNNY     82  63  51 N5        30.11F HX  83
KNOXVILLE *    SUNNY     82  64  54 N7        30.10F HX  84
MARSHALLTOWN     N/A     83  64  52 NW9       30.10F HX  84
6HR MIN TEMP:  65; 6HR MAX TEMP:  83;

PELLA *        SUNNY     84  66  54 CALM      30.11F HX  86
PERRY *          N/A     84  64  51 N3        30.12F HX  86
$$

IAZ004>006-015-016-023>025-035-036-311900-
   NORTH CENTRAL IOWA

CITY           SKY/WX    TMP DP  RH WIND       PRES   REMARKS
ALGONA *       SUNNY     81  55  41 N8        30.14F HX  80
CLARION *      SUNNY     81  63  54 NW9       30.14S HX  82
ESTHERVILLE    SUNNY     81  54  39 N12       30.15S HX  81
6HR MIN TEMP:  63; 6HR MAX TEMP:  81;

FORT DODGE *   PTSUNNY   81  63  54 N8        30.14F HX  82
MASON CITY     SUNNY     81  55  40 NW15      30.13F HX  81
6HR MIN TEMP:  64; 6HR MAX TEMP:  81;

FOREST CITY *  SUNNY     77  52  41 NW12G17   30.13F
IOWA FALLS *     N/A     81  62  52 NW8       30.13F HX  82
$$

IAZ007>011-017>019-026>030-037>042-050>054-066-311900-
   NORTHEAST IOWA

CITY           SKY/WX    TMP DP  RH WIND       PRES   REMARKS
CEDAR RAPIDS   SUNNY     83  62  49 NW15      30.07F HX  84
6HR MIN TEMP:  66; 6HR MAX TEMP:  83;

CHARLES CITY * SUNNY     79  59  50 NW12G17   30.11F HX  80
CLINTON *      SUNNY     84  61  45 NW16      30.07F HX  84
DECORAH *      SUNNY     77  54  44 NW14G21   30.07F
DUBUQUE        SUNNY     82  56  40 NW16      30.06F HX  82
6HR MIN TEMP:  67; 6HR MAX TEMP:  82;

MONTICELLO *   SUNNY     82  63  51 NW13G21   30.06F HX  83
OELWEIN *      SUNNY     79  57  47 NW14G20   30.10F HX  80
WATERLOO       SUNNY     82  60  47 N14       30.08F HX  82
6HR MIN TEMP:  67; 6HR MAX TEMP:  82;

$$

IAZ064-065-067-068-078-311900-
   EAST CENTRAL IOWA

CITY           SKY/WX    TMP DP  RH WIND       PRES   REMARKS
DAVENPORT      SUNNY     84  64  50 W10       30.06F HX  85
6HR MIN TEMP:  67; 6HR MAX TEMP:  84;

IOWA CITY      SUNNY     86  58  38 NW13      30.08F HX  85
6HR MIN TEMP:  68; 6HR MAX TEMP:  87;

MT. PLEASANT * SUNNY     87  55  33 W6        30.09F HX  85
MUSCATINE *    SUNNY     88  57  35 NW10      30.07S HX  86
QUAD CITIES    SUNNY     89  58  34 NW10G18   30.05F HX  88
6HR MIN TEMP:  68; 6HR MAX TEMP:  89;

$$

IAZ062-063-075>077-085>089-095>099-311900-
   SOUTHEAST IOWA

CITY           SKY/WX    TMP DP  RH WIND       PRES   REMARKS
BURLINGTON     MOSUNNY   86  68  54 VRB7      30.08F HX  89
6HR MIN TEMP:  70; 6HR MAX TEMP:  86;

FAIRFIELD *    SUNNY     82  63  51 CALM      30.10  HX  83
FORT MADISON * SUNNY     84  70  61 W6        30.10S HX  88
KEOKUK *       SUNNY     86  66  51 VRB6G12   30.08F HX  88
OSKALOOSA *      N/A     83  66  56 CALM      30.10F HX  85
CENTERVILLE *  SUNNY     84  68  58 W7        30.13F HX  87
OTTUMWA        SUNNY     83  68  60 W5        30.09S HX  86
6HR MIN TEMP:  68; 6HR MAX TEMP:  84;

WASHINGTON *   SUNNY     84  63  48 N6G13     30.10F HX  85
$$

ABBREVIATIONS USED IN REMARKS
   TC - TEMPERATURES IN CELSIUS
  WCI - WIND CHILL INDEX
   HX - HEAT INDEX
  VSB - VISIBILITY
$$



USA.gov is the U.S. government's official web portal to all federal, state and local government web resources and services.